Location: Chircca
(13.7944°S, 72.0608°W)
Time: 06:18:47
(UTC+00:00)

Cosmos 1025 Rocket - Pass Details

Date: 14 July 2020
Orbit: 593 x 619 km, 82.5° (Epoch: 14 August)

Event Time Altitude Azimuth Distance (km) Brightness Sun altitude
Rises 09:26:11 0° 4° (N) 2,822 6.7 -25.2°
Reaches altitude 10° 09:28:25 10° 9° (N) 1,923 5.9 -24.7°
Maximum altitude 09:32:34 56° 87° (E) 710 3.6 -23.7°
Drops below altitude 10° 09:36:46 10° 165° (SSE) 1,935 5.6 -22.8°
Sets 09:39:00 0° 169° (S) 2,842 6.4 -22.3°
